This is the latest recevied weather packets stored in our database for station/object K3HW. If no packets are shown the sender has not sent any weather packets the latest 10 day(s).
| Time | Temp. | Humidity | Pressure | Rain* | Wind** | Luminosity | Snow |
|---|---|---|---|---|---|---|---|
| 1778006932 | 27.22° C | 36% | 1013.1 hPa | 0 mm | - | 241 W/m² | - |
| 1778006629 | 27.22° C | 36% | 1013.1 hPa | 0 mm | - | 455 W/m² | - |
| 1778006326 | 27.22° C | 34% | 1013.1 hPa | 0 mm | - | 239 W/m² | - |
| 1778006023 | 27.22° C | 38% | 1013.2 hPa | 0 mm | - | 315 W/m² | - |
| 1778005720 | 27.22° C | 35% | 1013.2 hPa | 0 mm | - | 200 W/m² | - |
| 1778005417 | 27.22° C | 34% | 1013 hPa | 0 mm | - | 283 W/m² | - |
| 1778005114 | 27.22° C | 38% | 1013 hPa | 0 mm | - | 85 W/m² | - |
| 1778004811 | 27.22° C | 36% | 1013.4 hPa | 0 mm | - | 146 W/m² | - |
| 1778004507 | 27.78° C | 36% | 1013.3 hPa | 0 mm | - | 147 W/m² | - |
| 1778004204 | 27.22° C | 38% | 1013.4 hPa | 0 mm | - | 117 W/m² | - |
| 1778003900 | 27.22° C | 38% | 1013.4 hPa | 0 mm | - | 60 W/m² | - |
| 1778003597 | 27.22° C | 37% | 1013.5 hPa | 0 mm | - | 208 W/m² | - |
| 1778003294 | 27.22° C | 37% | 1013.4 hPa | 0 mm | - | 124 W/m² | - |
| 1778002991 | 27.22° C | 40% | 1013.5 hPa | 0 mm | - | 58 W/m² | - |
| 1778002686 | 27.22° C | 41% | 1013.4 hPa | 0 mm | - | 75 W/m² | - |
| 1778002383 | 27.22° C | 39% | 1013.3 hPa | 0 mm | - | 139 W/m² | - |
| 1778002080 | 27.22° C | 40% | 1013.3 hPa | 0 mm | - | 100 W/m² | - |
| 1778001777 | 27.22° C | 43% | 1013.5 hPa | 0 mm | - | 76 W/m² | - |
| 1778001472 | 27.78° C | 42% | 1013.5 hPa | 0 mm | - | 641 W/m² | - |
| 1778001169 | 27.22° C | 41% | 1013.5 hPa | 0 mm | - | 558 W/m² | - |
| 1778000866 | 27.22° C | 41% | 1013.5 hPa | 0 mm | - | 747 W/m² | - |
| 1778000564 | 27.22° C | 39% | 1013.6 hPa | 0 mm | - | 682 W/m² | - |
| 1777999960 | 27.22° C | 39% | 1013.7 hPa | 0 mm | - | 406 W/m² | - |
| 1777999656 | 27.22° C | 40% | 1013.6 hPa | 0 mm | - | 105 W/m² | - |
| 1777999353 | 27.22° C | 40% | 1013.9 hPa | 0 mm | - | 196 W/m² | - |
* Rain latest hour (hover to see other rain measurements)
** Current wind speed in m/s (hover to see current wind gust speed)